Year,Month,Day,Hour,Minute,Value (Times are PST for temperature in C)
2018,05,02,00,00,8.60
2018,05,02,00,01,8.60
2018,05,02,00,02,8.50
2018,05,02,00,03,8.50
2018,05,02,00,04,8.50
2018,05,02,00,05,8.50
2018,05,02,00,06,8.50
2018,05,02,00,07,8.40
2018,05,02,00,08,8.40
2018,05,02,00,09,8.40
2018,05,02,00,10,8.30
2018,05,02,00,11,8.30
2018,05,02,00,12,8.30
2018,05,02,00,13,8.30
2018,05,02,00,14,8.30
2018,05,02,00,15,8.20
2018,05,02,00,16,8.20
2018,05,02,00,17,8.20
2018,05,02,00,18,8.20
2018,05,02,00,19,8.20
2018,05,02,00,20,8.20
2018,05,02,00,21,8.20
2018,05,02,00,22,8.20
2018,05,02,00,23,8.20
2018,05,02,00,24,8.20
2018,05,02,00,25,8.20
2018,05,02,00,26,8.20
2018,05,02,00,27,8.20
2018,05,02,00,28,8.20
2018,05,02,00,29,8.20
2018,05,02,00,30,8.20
2018,05,02,00,31,8.20
2018,05,02,00,32,8.20
2018,05,02,00,33,8.20
2018,05,02,00,34,8.20
2018,05,02,00,35,8.20
2018,05,02,00,36,8.20
2018,05,02,00,37,8.20
2018,05,02,00,38,8.20
2018,05,02,00,39,8.10
2018,05,02,00,40,8.10
2018,05,02,00,41,8.10
2018,05,02,00,42,8.10
2018,05,02,00,43,8.10
2018,05,02,00,44,8.10
2018,05,02,00,45,8.10
2018,05,02,00,46,8.10
2018,05,02,00,47,8.10
2018,05,02,00,48,8.10
2018,05,02,00,49,8.10
2018,05,02,00,50,8.10
2018,05,02,00,51,8.10
2018,05,02,00,52,8.10
2018,05,02,00,53,8.10
2018,05,02,00,54,8.10
2018,05,02,00,55,8.10
2018,05,02,00,56,8.10
2018,05,02,00,57,8.10
2018,05,02,00,58,8.10
2018,05,02,00,59,8.20
2018,05,02,01,00,8.20
2018,05,02,01,01,8.20
2018,05,02,01,02,8.20
2018,05,02,01,03,8.20
2018,05,02,01,04,8.20
2018,05,02,01,05,8.20
2018,05,02,01,06,8.20
2018,05,02,01,07,8.20
2018,05,02,01,08,8.20
2018,05,02,01,09,8.20
2018,05,02,01,10,8.30
2018,05,02,01,11,8.30
2018,05,02,01,12,8.30
2018,05,02,01,13,8.30
2018,05,02,01,14,8.30
2018,05,02,01,15,8.30
2018,05,02,01,16,8.20
2018,05,02,01,17,8.20
2018,05,02,01,18,8.20
2018,05,02,01,19,8.20
2018,05,02,01,20,8.20
2018,05,02,01,21,8.20
2018,05,02,01,22,8.20
2018,05,02,01,23,8.20
2018,05,02,01,24,8.20
2018,05,02,01,25,8.20
2018,05,02,01,26,8.30
2018,05,02,01,27,8.30
2018,05,02,01,28,8.30
2018,05,02,01,29,8.30
2018,05,02,01,30,8.30
2018,05,02,01,31,8.20
2018,05,02,01,32,8.20
2018,05,02,01,33,8.20
2018,05,02,01,34,8.20
2018,05,02,01,35,8.20
2018,05,02,01,36,8.20
2018,05,02,01,37,8.20
2018,05,02,01,38,8.20
2018,05,02,01,39,8.20
2018,05,02,01,40,8.20
2018,05,02,01,41,8.20
2018,05,02,01,42,8.20
2018,05,02,01,43,8.20
2018,05,02,01,44,8.20
2018,05,02,01,45,8.20
2018,05,02,01,46,8.20
2018,05,02,01,47,8.20
2018,05,02,01,48,8.20
2018,05,02,01,49,8.30
2018,05,02,01,50,8.30
2018,05,02,01,51,8.30
2018,05,02,01,52,8.30
2018,05,02,01,53,8.30
2018,05,02,01,54,8.30
2018,05,02,01,55,8.30
2018,05,02,01,56,8.30
2018,05,02,01,57,8.30
2018,05,02,01,58,8.30
2018,05,02,01,59,8.30
2018,05,02,02,00,8.30
2018,05,02,02,01,8.30
2018,05,02,02,02,8.20
2018,05,02,02,03,8.20
2018,05,02,02,04,8.20
2018,05,02,02,05,8.20
2018,05,02,02,06,8.20
2018,05,02,02,07,8.20
2018,05,02,02,08,8.20
2018,05,02,02,09,8.20
2018,05,02,02,10,8.20
2018,05,02,02,11,8.20
2018,05,02,02,12,8.20
2018,05,02,02,13,8.20
2018,05,02,02,14,8.20
2018,05,02,02,15,8.20
2018,05,02,02,16,8.20
2018,05,02,02,17,8.20
2018,05,02,02,18,8.20
2018,05,02,02,19,8.20
2018,05,02,02,20,8.20
2018,05,02,02,21,8.20
2018,05,02,02,22,8.20
2018,05,02,02,23,8.20
2018,05,02,02,24,8.20
2018,05,02,02,25,8.20
2018,05,02,02,26,8.20
2018,05,02,02,27,8.10
2018,05,02,02,28,8.10
2018,05,02,02,29,8.10
2018,05,02,02,30,8.00
2018,05,02,02,31,8.00
2018,05,02,02,32,8.00
2018,05,02,02,33,8.00
2018,05,02,02,34,7.90
2018,05,02,02,35,7.90
2018,05,02,02,36,7.90
2018,05,02,02,37,7.90
2018,05,02,02,38,7.90
2018,05,02,02,39,7.80
2018,05,02,02,40,7.80
2018,05,02,02,41,7.80
2018,05,02,02,42,7.80
2018,05,02,02,43,7.80
2018,05,02,02,44,7.80
2018,05,02,02,45,7.80
2018,05,02,02,46,7.80
2018,05,02,02,47,7.80
2018,05,02,02,48,7.80
2018,05,02,02,49,7.80
2018,05,02,02,50,7.80
2018,05,02,02,51,7.80
2018,05,02,02,52,7.80
2018,05,02,02,53,7.80
2018,05,02,02,54,7.80
2018,05,02,02,55,7.80
2018,05,02,02,56,7.80
2018,05,02,02,57,7.80
2018,05,02,02,58,7.80
2018,05,02,02,59,7.90
2018,05,02,03,00,7.90
2018,05,02,03,01,7.90
2018,05,02,03,02,8.00
2018,05,02,03,03,8.00
2018,05,02,03,04,8.00
2018,05,02,03,05,8.00
2018,05,02,03,06,8.00
2018,05,02,03,07,8.00
2018,05,02,03,08,8.00
2018,05,02,03,09,8.10
2018,05,02,03,10,8.10
2018,05,02,03,11,8.20
2018,05,02,03,12,8.20
2018,05,02,03,13,8.20
2018,05,02,03,14,8.30
2018,05,02,03,15,8.40
2018,05,02,03,16,8.50
2018,05,02,03,17,8.50
2018,05,02,03,18,8.60
2018,05,02,03,19,8.60
2018,05,02,03,20,8.70
2018,05,02,03,21,8.70
2018,05,02,03,22,8.70
2018,05,02,03,23,8.80
2018,05,02,03,24,8.90
2018,05,02,03,25,8.90
2018,05,02,03,26,9.00
2018,05,02,03,27,9.00
2018,05,02,03,28,9.10
2018,05,02,03,29,9.10
2018,05,02,03,30,9.20
2018,05,02,03,31,9.20
2018,05,02,03,32,9.20
2018,05,02,03,33,9.20
2018,05,02,03,34,9.20
2018,05,02,03,35,9.20
2018,05,02,03,36,9.20
2018,05,02,03,37,9.10
2018,05,02,03,38,9.10
2018,05,02,03,39,9.00
2018,05,02,03,40,9.00
2018,05,02,03,41,9.00
2018,05,02,03,42,8.90
2018,05,02,03,43,8.90
2018,05,02,03,44,8.80
2018,05,02,03,45,8.70
2018,05,02,03,46,8.70
2018,05,02,03,47,8.70
2018,05,02,03,48,8.70
2018,05,02,03,49,8.60
2018,05,02,03,50,8.60
2018,05,02,03,51,8.50
2018,05,02,03,52,8.50
2018,05,02,03,53,8.50
2018,05,02,03,54,8.50
2018,05,02,03,55,8.40
2018,05,02,03,56,8.40
2018,05,02,03,57,8.30
2018,05,02,03,58,8.30
2018,05,02,03,59,8.30
2018,05,02,04,00,8.30
2018,05,02,04,01,8.30
2018,05,02,04,02,8.30
2018,05,02,04,03,8.30
2018,05,02,04,04,8.30
2018,05,02,04,05,8.30
2018,05,02,04,06,8.30
2018,05,02,04,07,8.30
2018,05,02,04,08,8.40
2018,05,02,04,09,8.40
2018,05,02,04,10,8.40
2018,05,02,04,11,8.50
2018,05,02,04,12,8.50
2018,05,02,04,13,8.50
2018,05,02,04,14,8.50
2018,05,02,04,15,8.50
2018,05,02,04,16,8.50
2018,05,02,04,17,8.60
2018,05,02,04,18,8.60
2018,05,02,04,19,8.60
2018,05,02,04,20,8.60
2018,05,02,04,21,8.60
2018,05,02,04,22,8.60
2018,05,02,04,23,8.60
2018,05,02,04,24,8.60
2018,05,02,04,25,8.70
2018,05,02,04,26,8.70
2018,05,02,04,27,8.70
2018,05,02,04,28,8.70
2018,05,02,04,29,8.70
2018,05,02,04,30,8.70
2018,05,02,04,31,8.70
2018,05,02,04,32,8.70
2018,05,02,04,33,8.70
2018,05,02,04,34,8.70
2018,05,02,04,35,8.70
2018,05,02,04,36,8.60
2018,05,02,04,37,8.60
2018,05,02,04,38,8.60
2018,05,02,04,39,8.60
2018,05,02,04,40,8.60
2018,05,02,04,41,8.60
2018,05,02,04,42,8.60
2018,05,02,04,43,8.50
2018,05,02,04,44,8.50
2018,05,02,04,45,8.40
2018,05,02,04,46,8.40
2018,05,02,04,47,8.30
2018,05,02,04,48,8.30
2018,05,02,04,49,8.20
2018,05,02,04,50,8.20
2018,05,02,04,51,8.20
2018,05,02,04,52,8.20
2018,05,02,04,53,8.20
2018,05,02,04,54,8.10
2018,05,02,04,55,8.10
2018,05,02,04,56,8.10
2018,05,02,04,57,8.10
2018,05,02,04,58,8.10
2018,05,02,04,59,8.00
2018,05,02,05,00,8.00
2018,05,02,05,01,8.00
2018,05,02,05,02,8.00
2018,05,02,05,03,8.00
2018,05,02,05,04,8.00
2018,05,02,05,05,8.00
2018,05,02,05,06,8.10
2018,05,02,05,07,8.10
2018,05,02,05,08,8.10
2018,05,02,05,09,8.10
2018,05,02,05,10,8.10
2018,05,02,05,11,8.00
2018,05,02,05,12,8.00
2018,05,02,05,13,8.00
2018,05,02,05,14,8.00
2018,05,02,05,15,7.90
2018,05,02,05,16,7.90
2018,05,02,05,17,7.90
2018,05,02,05,18,7.90
2018,05,02,05,19,7.90
2018,05,02,05,20,7.80
2018,05,02,05,21,7.80
2018,05,02,05,22,7.80
2018,05,02,05,23,7.80
2018,05,02,05,24,7.80
2018,05,02,05,25,7.80
2018,05,02,05,26,7.80
2018,05,02,05,27,7.80
2018,05,02,05,28,7.70
2018,05,02,05,29,7.70
2018,05,02,05,30,7.70
2018,05,02,05,31,7.70
2018,05,02,05,32,7.70
2018,05,02,05,33,7.60
2018,05,02,05,34,7.60
2018,05,02,05,35,7.60
2018,05,02,05,36,7.60
2018,05,02,05,37,7.60
2018,05,02,05,38,7.60
2018,05,02,05,39,7.50
2018,05,02,05,40,7.50
2018,05,02,05,41,7.50
2018,05,02,05,42,7.60
2018,05,02,05,43,7.60
2018,05,02,05,44,7.60
2018,05,02,05,45,7.60
2018,05,02,05,46,7.60
2018,05,02,05,47,7.60
2018,05,02,05,48,7.60
2018,05,02,05,49,7.60
2018,05,02,05,50,7.60
2018,05,02,05,51,7.50
2018,05,02,05,52,7.50
2018,05,02,05,53,7.50
2018,05,02,05,54,7.50
2018,05,02,05,55,7.60
2018,05,02,05,56,7.60
2018,05,02,05,57,7.60
2018,05,02,05,58,7.60
2018,05,02,05,59,7.60
2018,05,02,06,00,7.50
2018,05,02,06,01,7.50
2018,05,02,06,02,7.50
2018,05,02,06,03,7.50
2018,05,02,06,04,7.40
2018,05,02,06,05,7.40
2018,05,02,06,06,7.40
2018,05,02,06,07,7.40
2018,05,02,06,08,7.40
2018,05,02,06,09,7.40
2018,05,02,06,10,7.40
2018,05,02,06,11,7.40
2018,05,02,06,12,7.40
2018,05,02,06,13,7.40
2018,05,02,06,14,7.40
2018,05,02,06,15,7.40
2018,05,02,06,16,7.40
2018,05,02,06,17,7.40
2018,05,02,06,18,7.40
2018,05,02,06,19,7.40
2018,05,02,06,20,7.40
2018,05,02,06,21,7.40
2018,05,02,06,22,7.40
2018,05,02,06,23,7.40
2018,05,02,06,24,7.40
2018,05,02,06,25,7.40
2018,05,02,06,26,7.50
2018,05,02,06,27,7.50
2018,05,02,06,28,7.50
2018,05,02,06,29,7.50
2018,05,02,06,30,7.50
2018,05,02,06,31,7.50
2018,05,02,06,32,7.60
2018,05,02,06,33,7.60
2018,05,02,06,34,7.60
2018,05,02,06,35,7.60
2018,05,02,06,36,7.70
2018,05,02,06,37,7.70
2018,05,02,06,38,7.70
2018,05,02,06,39,7.80
2018,05,02,06,40,7.80
2018,05,02,06,41,7.80
2018,05,02,06,42,7.90
2018,05,02,06,43,7.90
2018,05,02,06,44,7.90
2018,05,02,06,45,7.90
2018,05,02,06,46,8.00
2018,05,02,06,47,8.00
2018,05,02,06,48,8.00
2018,05,02,06,49,8.10
2018,05,02,06,50,8.10
2018,05,02,06,51,8.10
2018,05,02,06,52,8.20
2018,05,02,06,53,8.20
2018,05,02,06,54,8.20
2018,05,02,06,55,8.20
2018,05,02,06,56,8.20
2018,05,02,06,57,8.30
2018,05,02,06,58,8.30
2018,05,02,06,59,8.30
2018,05,02,07,00,8.30
2018,05,02,07,01,8.40
2018,05,02,07,02,8.40
2018,05,02,07,03,8.50
2018,05,02,07,04,8.50
2018,05,02,07,05,8.50
2018,05,02,07,06,8.60
2018,05,02,07,07,8.60
2018,05,02,07,08,8.60
2018,05,02,07,09,8.70
2018,05,02,07,10,8.70
2018,05,02,07,11,8.70
2018,05,02,07,12,8.70
2018,05,02,07,13,8.80
2018,05,02,07,14,8.80
2018,05,02,07,15,8.90
2018,05,02,07,16,8.90
2018,05,02,07,17,8.90
2018,05,02,07,18,9.00
2018,05,02,07,19,9.00
2018,05,02,07,20,9.10
2018,05,02,07,21,9.20
2018,05,02,07,22,9.20
2018,05,02,07,23,9.20
2018,05,02,07,24,9.20
2018,05,02,07,25,9.30
2018,05,02,07,26,9.30
2018,05,02,07,27,9.30
2018,05,02,07,28,9.40
2018,05,02,07,29,9.40
2018,05,02,07,30,9.50
2018,05,02,07,31,9.50
2018,05,02,07,32,9.50
2018,05,02,07,33,9.50
2018,05,02,07,34,9.60
2018,05,02,07,35,9.60
2018,05,02,07,36,9.60
2018,05,02,07,37,9.70
2018,05,02,07,38,9.70
2018,05,02,07,39,9.70
2018,05,02,07,40,9.70
2018,05,02,07,41,9.70
2018,05,02,07,42,9.80
2018,05,02,07,43,9.80
2018,05,02,07,44,9.90
2018,05,02,07,45,9.90
2018,05,02,07,46,9.90
2018,05,02,07,47,9.90
2018,05,02,07,48,9.90
2018,05,02,07,49,10.00
2018,05,02,07,50,10.10
2018,05,02,07,51,10.10
2018,05,02,07,52,10.10
2018,05,02,07,53,10.10
2018,05,02,07,54,10.10
2018,05,02,07,55,10.20
2018,05,02,07,56,10.20
2018,05,02,07,57,10.20
2018,05,02,07,58,10.20
2018,05,02,07,59,10.20
2018,05,02,08,00,10.20
2018,05,02,08,01,10.30
2018,05,02,08,02,10.30
2018,05,02,08,03,10.40
2018,05,02,08,04,10.40
2018,05,02,08,05,10.40
2018,05,02,08,06,10.40
2018,05,02,08,07,10.50
2018,05,02,08,08,10.60
2018,05,02,08,09,10.60
2018,05,02,08,10,10.60
2018,05,02,08,11,10.60
2018,05,02,08,12,10.60
2018,05,02,08,13,10.60
2018,05,02,08,14,10.60
2018,05,02,08,15,10.60
2018,05,02,08,16,10.60
2018,05,02,08,17,10.70
2018,05,02,08,18,10.70
2018,05,02,08,19,10.80
2018,05,02,08,20,10.80
2018,05,02,08,21,10.90
2018,05,02,08,22,10.90
2018,05,02,08,23,10.90
2018,05,02,08,24,10.90
2018,05,02,08,25,11.10
2018,05,02,08,26,11.10
2018,05,02,08,27,11.10
2018,05,02,08,28,11.10
2018,05,02,08,29,11.10
2018,05,02,08,30,11.20
2018,05,02,08,31,11.20
2018,05,02,08,32,11.20
2018,05,02,08,33,11.20
2018,05,02,08,34,11.30
2018,05,02,08,35,11.30
2018,05,02,08,36,11.40
2018,05,02,08,37,11.40
2018,05,02,08,38,11.40
2018,05,02,08,39,11.40
2018,05,02,08,40,11.40
2018,05,02,08,41,11.50
2018,05,02,08,42,11.60
2018,05,02,08,43,11.60
2018,05,02,08,44,11.60
2018,05,02,08,45,11.60
2018,05,02,08,46,11.70
2018,05,02,08,47,11.70
2018,05,02,08,48,11.80
2018,05,02,08,49,11.80
2018,05,02,08,50,11.80
2018,05,02,08,51,11.80
2018,05,02,08,52,11.80
2018,05,02,08,53,11.90
2018,05,02,08,54,11.90
2018,05,02,08,55,12.00
2018,05,02,08,56,12.00
2018,05,02,08,57,12.10
2018,05,02,08,58,12.10
2018,05,02,08,59,12.20
2018,05,02,09,00,12.20
2018,05,02,09,01,12.30
2018,05,02,09,02,12.30
2018,05,02,09,03,12.40
2018,05,02,09,04,12.60
2018,05,02,09,05,12.70
2018,05,02,09,06,12.80
2018,05,02,09,07,13.00
2018,05,02,09,08,13.10
2018,05,02,09,09,13.20
2018,05,02,09,10,13.30
2018,05,02,09,11,13.30
2018,05,02,09,12,13.40
2018,05,02,09,13,13.30
2018,05,02,09,14,13.30
2018,05,02,09,15,13.30
2018,05,02,09,16,13.30
2018,05,02,09,17,13.30
2018,05,02,09,18,13.30
2018,05,02,09,19,13.20
2018,05,02,09,20,13.20
2018,05,02,09,21,13.10
2018,05,02,09,22,13.00
2018,05,02,09,23,12.90
2018,05,02,09,24,12.90
2018,05,02,09,25,12.80
2018,05,02,09,26,12.80
2018,05,02,09,27,12.70
2018,05,02,09,28,12.60
2018,05,02,09,29,12.50
2018,05,02,09,30,12.50
2018,05,02,09,31,12.60
2018,05,02,09,32,12.60
2018,05,02,09,33,12.70
2018,05,02,09,34,12.60
2018,05,02,09,35,12.60
2018,05,02,09,36,12.60
2018,05,02,09,37,12.60
2018,05,02,09,38,12.70
2018,05,02,09,39,12.60
2018,05,02,09,40,12.50
2018,05,02,09,41,12.40
2018,05,02,09,42,12.30
2018,05,02,09,43,12.30
2018,05,02,09,44,12.30
2018,05,02,09,45,12.40
2018,05,02,09,46,12.40
2018,05,02,09,47,12.50
2018,05,02,09,48,12.50
2018,05,02,09,49,12.50
2018,05,02,09,50,12.60
2018,05,02,09,51,12.70
2018,05,02,09,52,12.70
2018,05,02,09,53,12.80
2018,05,02,09,54,12.80
2018,05,02,09,55,12.80
2018,05,02,09,56,12.90
2018,05,02,09,57,12.90
2018,05,02,09,58,12.90
2018,05,02,09,59,12.90
2018,05,02,10,00,13.00
2018,05,02,10,01,13.00
2018,05,02,10,02,13.00
2018,05,02,10,03,13.00
2018,05,02,10,04,13.00
2018,05,02,10,05,13.00
2018,05,02,10,06,12.90
2018,05,02,10,07,12.90
2018,05,02,10,08,12.90
2018,05,02,10,09,13.00
2018,05,02,10,10,13.10
2018,05,02,10,11,13.00
2018,05,02,10,12,13.10
2018,05,02,10,13,13.10
2018,05,02,10,14,13.10
2018,05,02,10,15,13.10
2018,05,02,10,16,13.10
2018,05,02,10,17,13.20
2018,05,02,10,18,13.30
2018,05,02,10,19,13.40
2018,05,02,10,20,13.50
2018,05,02,10,21,13.60
2018,05,02,10,22,13.50
2018,05,02,10,23,13.50
2018,05,02,10,24,13.50
2018,05,02,10,25,13.60
2018,05,02,10,26,13.60
2018,05,02,10,27,13.60
2018,05,02,10,28,13.60
2018,05,02,10,29,13.60
2018,05,02,10,30,13.60
2018,05,02,10,31,13.60
2018,05,02,10,32,13.70
2018,05,02,10,33,13.60
2018,05,02,10,34,13.70
2018,05,02,10,35,13.70
2018,05,02,10,36,13.70
2018,05,02,10,37,13.70
2018,05,02,10,38,13.70
2018,05,02,10,39,13.80
2018,05,02,10,40,13.80
2018,05,02,10,41,13.80
2018,05,02,10,42,13.70
2018,05,02,10,43,13.70
2018,05,02,10,44,13.70
2018,05,02,10,45,13.70
2018,05,02,10,46,13.70
2018,05,02,10,47,13.70
2018,05,02,10,48,13.80
2018,05,02,10,49,13.90
2018,05,02,10,50,13.90
2018,05,02,10,51,13.90
2018,05,02,10,52,13.90
2018,05,02,10,53,14.00
2018,05,02,10,54,14.00
2018,05,02,10,55,14.10
2018,05,02,10,56,14.00
2018,05,02,10,57,13.90
2018,05,02,10,58,13.80
2018,05,02,10,59,13.70
2018,05,02,11,00,13.70
2018,05,02,11,01,13.70
2018,05,02,11,02,13.70
2018,05,02,11,03,13.70
2018,05,02,11,04,13.70
2018,05,02,11,05,13.70
2018,05,02,11,06,13.70
2018,05,02,11,07,13.70
2018,05,02,11,08,13.70
2018,05,02,11,09,13.70
2018,05,02,11,10,13.70
2018,05,02,11,11,13.80
2018,05,02,11,12,13.90
2018,05,02,11,13,13.90
2018,05,02,11,14,13.90
2018,05,02,11,15,13.90
2018,05,02,11,16,14.00
2018,05,02,11,17,14.00
2018,05,02,11,18,14.10
2018,05,02,11,19,14.20
2018,05,02,11,20,14.10
2018,05,02,11,21,14.10
2018,05,02,11,22,14.10
2018,05,02,11,23,14.10
2018,05,02,11,24,14.10
2018,05,02,11,25,14.20
2018,05,02,11,26,14.20
2018,05,02,11,27,14.20
2018,05,02,11,28,14.10
2018,05,02,11,29,14.10
2018,05,02,11,30,14.10
2018,05,02,11,31,14.10
2018,05,02,11,32,14.10
2018,05,02,11,33,14.10
2018,05,02,11,34,14.20
2018,05,02,11,35,14.20
2018,05,02,11,36,14.20
2018,05,02,11,37,14.10
2018,05,02,11,38,14.00
2018,05,02,11,39,14.00
2018,05,02,11,40,14.00
2018,05,02,11,41,14.00
2018,05,02,11,42,13.90
2018,05,02,11,43,13.90
2018,05,02,11,44,14.00
2018,05,02,11,45,14.10
2018,05,02,11,46,14.20
2018,05,02,11,47,14.20
2018,05,02,11,48,14.30
2018,05,02,11,49,14.40
2018,05,02,11,50,14.40
2018,05,02,11,51,14.40
2018,05,02,11,52,14.50
2018,05,02,11,53,14.60
2018,05,02,11,54,14.60
2018,05,02,11,55,14.60
2018,05,02,11,56,14.50
2018,05,02,11,57,14.50
2018,05,02,11,58,14.50
2018,05,02,11,59,14.40
2018,05,02,12,00,14.40
2018,05,02,12,01,14.40
2018,05,02,12,02,14.40
2018,05,02,12,03,14.40
2018,05,02,12,04,14.40
2018,05,02,12,05,14.40
2018,05,02,12,06,14.30
2018,05,02,12,07,14.30
2018,05,02,12,08,14.20
2018,05,02,12,09,14.20
2018,05,02,12,10,14.20
2018,05,02,12,11,14.20
2018,05,02,12,12,14.30
2018,05,02,12,13,14.40
2018,05,02,12,14,14.40
2018,05,02,12,15,14.30
2018,05,02,12,16,14.30
2018,05,02,12,17,14.20
2018,05,02,12,18,14.30
2018,05,02,12,19,14.30
2018,05,02,12,20,14.30
2018,05,02,12,21,14.30
2018,05,02,12,22,14.30
2018,05,02,12,23,14.40
2018,05,02,12,24,14.40
2018,05,02,12,25,14.40
2018,05,02,12,26,14.40
2018,05,02,12,27,14.30
2018,05,02,12,28,14.30
2018,05,02,12,29,14.30
2018,05,02,12,30,14.30
2018,05,02,12,31,14.40
2018,05,02,12,32,14.50
2018,05,02,12,33,14.60
2018,05,02,12,34,14.70
2018,05,02,12,35,14.70
2018,05,02,12,36,14.60
2018,05,02,12,37,14.60
2018,05,02,12,38,14.50
2018,05,02,12,39,14.40
2018,05,02,12,40,14.30
2018,05,02,12,41,14.30
2018,05,02,12,42,14.30
2018,05,02,12,43,14.30
2018,05,02,12,44,14.40
2018,05,02,12,45,14.40
2018,05,02,12,46,14.50
2018,05,02,12,47,14.50
2018,05,02,12,48,14.50
2018,05,02,12,49,14.40
2018,05,02,12,50,14.50
2018,05,02,12,51,14.60
2018,05,02,12,52,14.60
2018,05,02,12,53,14.60
2018,05,02,12,54,14.60
2018,05,02,12,55,14.60
2018,05,02,12,56,14.50
2018,05,02,12,57,14.50
2018,05,02,12,58,14.60
2018,05,02,12,59,14.60
2018,05,02,13,00,14.60
2018,05,02,13,01,14.60
2018,05,02,13,02,14.60
2018,05,02,13,03,14.60
2018,05,02,13,04,14.60
2018,05,02,13,05,14.60
2018,05,02,13,06,14.70
2018,05,02,13,07,14.70
2018,05,02,13,08,14.70
2018,05,02,13,09,14.70
2018,05,02,13,10,14.60
2018,05,02,13,11,14.70
2018,05,02,13,12,14.70
2018,05,02,13,13,14.60
2018,05,02,13,14,14.70
2018,05,02,13,15,14.70
2018,05,02,13,16,14.70
2018,05,02,13,17,14.60
2018,05,02,13,18,14.70
2018,05,02,13,19,14.80
2018,05,02,13,20,14.80
2018,05,02,13,21,14.80
2018,05,02,13,22,14.70
2018,05,02,13,23,14.70
2018,05,02,13,24,14.70
2018,05,02,13,25,14.80
2018,05,02,13,26,14.80
2018,05,02,13,27,14.80
2018,05,02,13,28,14.70
2018,05,02,13,29,14.70
2018,05,02,13,30,14.70
2018,05,02,13,31,14.80
2018,05,02,13,32,14.90
2018,05,02,13,33,15.00
2018,05,02,13,34,15.00
2018,05,02,13,35,15.00
2018,05,02,13,36,15.00
2018,05,02,13,37,15.10
2018,05,02,13,38,15.20
2018,05,02,13,39,15.20
2018,05,02,13,40,15.20
2018,05,02,13,41,15.10
2018,05,02,13,42,15.10
2018,05,02,13,43,15.20
2018,05,02,13,44,15.30
2018,05,02,13,45,15.30
2018,05,02,13,46,15.30
2018,05,02,13,47,15.30
2018,05,02,13,48,15.30
2018,05,02,13,49,15.20
2018,05,02,13,50,15.20
2018,05,02,13,51,15.30
2018,05,02,13,52,15.30
2018,05,02,13,53,15.50
2018,05,02,13,54,15.50
2018,05,02,13,55,15.50
2018,05,02,13,56,15.40
2018,05,02,13,57,15.30
2018,05,02,13,58,15.30
2018,05,02,13,59,15.30
2018,05,02,14,00,15.30
2018,05,02,14,01,15.30
2018,05,02,14,02,15.30
2018,05,02,14,03,15.30
2018,05,02,14,04,15.20
2018,05,02,14,05,15.20
2018,05,02,14,06,15.20
2018,05,02,14,07,15.30
2018,05,02,14,08,15.30
2018,05,02,14,09,15.40
2018,05,02,14,10,15.50
2018,05,02,14,11,15.60
2018,05,02,14,12,15.70
2018,05,02,14,13,15.80
2018,05,02,14,14,15.70
2018,05,02,14,15,15.70
2018,05,02,14,16,15.80
2018,05,02,14,17,15.80
2018,05,02,14,18,15.80
2018,05,02,14,19,15.80
2018,05,02,14,20,15.90
2018,05,02,14,21,15.90
2018,05,02,14,22,16.00
2018,05,02,14,23,16.10
2018,05,02,14,24,16.20
2018,05,02,14,25,16.30
2018,05,02,14,26,16.30
2018,05,02,14,27,16.40
2018,05,02,14,28,16.40
2018,05,02,14,29,16.40
2018,05,02,14,30,16.40
2018,05,02,14,31,16.40
2018,05,02,14,32,16.40
2018,05,02,14,33,16.30
2018,05,02,14,34,16.30
2018,05,02,14,35,16.30
2018,05,02,14,36,16.20
2018,05,02,14,37,16.20
2018,05,02,14,38,16.20
2018,05,02,14,39,16.10
2018,05,02,14,40,16.10
2018,05,02,14,41,16.10
2018,05,02,14,42,16.10
2018,05,02,14,43,16.10
2018,05,02,14,44,16.10
2018,05,02,14,45,16.10
2018,05,02,14,46,16.20
2018,05,02,14,47,16.10
2018,05,02,14,48,16.10
2018,05,02,14,49,16.20
2018,05,02,14,50,16.20
2018,05,02,14,51,16.20
2018,05,02,14,52,16.20
2018,05,02,14,53,16.20
2018,05,02,14,54,16.20
2018,05,02,14,55,16.30
2018,05,02,14,56,16.30
2018,05,02,14,57,16.30
2018,05,02,14,58,16.30
2018,05,02,14,59,16.40
2018,05,02,15,00,16.40
2018,05,02,15,01,16.30
2018,05,02,15,02,16.30
2018,05,02,15,03,16.30
2018,05,02,15,04,16.20
2018,05,02,15,05,16.20
2018,05,02,15,06,16.20
2018,05,02,15,07,16.30
2018,05,02,15,08,16.30
2018,05,02,15,09,16.40
2018,05,02,15,10,16.60
2018,05,02,15,11,16.60
2018,05,02,15,12,16.60
2018,05,02,15,13,16.60
2018,05,02,15,14,16.60
2018,05,02,15,15,16.60
2018,05,02,15,16,16.70
2018,05,02,15,17,16.70
2018,05,02,15,18,16.70
2018,05,02,15,19,16.60
2018,05,02,15,20,16.50
2018,05,02,15,21,16.40
2018,05,02,15,22,16.40
2018,05,02,15,23,16.30
2018,05,02,15,24,16.20
2018,05,02,15,25,16.10
2018,05,02,15,26,16.10
2018,05,02,15,27,15.90
2018,05,02,15,28,15.80
2018,05,02,15,29,15.80
2018,05,02,15,30,15.80
2018,05,02,15,31,15.90
2018,05,02,15,32,16.00
2018,05,02,15,33,16.10
2018,05,02,15,34,16.10
2018,05,02,15,35,15.90
2018,05,02,15,36,15.90
2018,05,02,15,37,15.80
2018,05,02,15,38,15.80
2018,05,02,15,39,15.70
2018,05,02,15,40,15.60
2018,05,02,15,41,15.50
2018,05,02,15,42,15.50
2018,05,02,15,43,15.40
2018,05,02,15,44,15.40
2018,05,02,15,45,15.30
2018,05,02,15,46,15.30
2018,05,02,15,47,15.30
2018,05,02,15,48,15.20
2018,05,02,15,49,15.30
2018,05,02,15,50,15.30
2018,05,02,15,51,15.40
2018,05,02,15,52,15.50
2018,05,02,15,53,15.50
2018,05,02,15,54,15.50
2018,05,02,15,55,15.50
2018,05,02,15,56,15.50
2018,05,02,15,57,15.40
2018,05,02,15,58,15.40
2018,05,02,15,59,15.50
2018,05,02,16,00,15.50
2018,05,02,16,01,15.60
2018,05,02,16,02,15.60
2018,05,02,16,03,15.60
2018,05,02,16,04,15.60
2018,05,02,16,05,15.60
2018,05,02,16,06,15.60
2018,05,02,16,07,15.60
2018,05,02,16,08,15.70
2018,05,02,16,09,15.70
2018,05,02,16,10,15.70
2018,05,02,16,11,15.70
2018,05,02,16,12,15.70
2018,05,02,16,13,15.60
2018,05,02,16,14,15.60
2018,05,02,16,15,15.60
2018,05,02,16,16,15.60
2018,05,02,16,17,15.60
2018,05,02,16,18,15.60
2018,05,02,16,19,15.60
2018,05,02,16,20,15.70
2018,05,02,16,21,15.80
2018,05,02,16,22,15.70
2018,05,02,16,23,15.70
2018,05,02,16,24,15.80
2018,05,02,16,25,15.90
2018,05,02,16,26,15.90
2018,05,02,16,27,16.00
2018,05,02,16,28,15.90
2018,05,02,16,29,15.90
2018,05,02,16,30,16.00
2018,05,02,16,31,16.10
2018,05,02,16,32,16.10
2018,05,02,16,33,16.10
2018,05,02,16,34,16.00
2018,05,02,16,35,15.90
2018,05,02,16,36,15.90
2018,05,02,16,37,15.80
2018,05,02,16,38,15.80
2018,05,02,16,39,15.60
2018,05,02,16,40,15.50
2018,05,02,16,41,15.30
2018,05,02,16,42,15.20
2018,05,02,16,43,15.10
2018,05,02,16,44,15.10
2018,05,02,16,45,15.10
2018,05,02,16,46,15.00
2018,05,02,16,47,15.00
2018,05,02,16,48,15.00
2018,05,02,16,49,15.00
2018,05,02,16,50,15.00
2018,05,02,16,51,15.10
2018,05,02,16,52,15.10
2018,05,02,16,53,15.20
2018,05,02,16,54,15.20
2018,05,02,16,55,15.30
2018,05,02,16,56,15.30
2018,05,02,16,57,15.30
2018,05,02,16,58,15.30
2018,05,02,16,59,15.30
2018,05,02,17,00,15.30
2018,05,02,17,01,15.30
2018,05,02,17,02,15.30
2018,05,02,17,03,15.30
2018,05,02,17,04,15.30
2018,05,02,17,05,15.40
2018,05,02,17,06,15.50
2018,05,02,17,07,15.60
2018,05,02,17,08,15.60
2018,05,02,17,09,15.70
2018,05,02,17,10,15.60
2018,05,02,17,11,15.60
2018,05,02,17,12,15.50
2018,05,02,17,13,15.50
2018,05,02,17,14,15.40
2018,05,02,17,15,15.40
2018,05,02,17,16,15.40
2018,05,02,17,17,15.30
2018,05,02,17,18,15.30
2018,05,02,17,19,15.40
2018,05,02,17,20,15.50
2018,05,02,17,21,15.50
2018,05,02,17,22,15.50
2018,05,02,17,23,15.50
2018,05,02,17,24,15.50
2018,05,02,17,25,15.50
2018,05,02,17,26,15.50
2018,05,02,17,27,15.50
2018,05,02,17,28,15.60
2018,05,02,17,29,15.50
2018,05,02,17,30,15.50
2018,05,02,17,31,15.50
2018,05,02,17,32,15.50
2018,05,02,17,33,15.50
2018,05,02,17,34,15.50
2018,05,02,17,35,15.60
2018,05,02,17,36,15.70
2018,05,02,17,37,15.80
2018,05,02,17,38,15.80
2018,05,02,17,39,15.80